[[{"header":{"parameterUnit":"m.s-1","parameterCategory":1,"la1":30.2991,"la2":30.254,"lo1":-89.0895,"lo2":-89.0444,"dy":0.0017,"dx":0.0017,"nx":28,"ny":28,"refTime":"2025-11-08T03:00:00:Z","depth":0,"parameterNumber":2,"parameterNumberName":"U-component_of_WINDS"},"data":[0,0,0,0,0,0,0,0,0,0,0,0,0,0,0,0,0,0,0,0,0,0,0,0,0,0,0,0,0,0,0,0,0,0,0,0,0,0,0,0,0,0,0,0,0,0,0,0,0,0,0,0,0,0,0,0,0,0,3.6053,3.6055,0,3.6194,3.6196,3.6197,3.6163,3.616,3.6157,3.6155,3.6303,3.6309,3.6316,0,0,0,0,0,0,0,0,0,0,0,0,0,3.5761,3.5767,3.6053,3.6055,3.6057,3.6194,3.6196,3.6198,3.6163,3.616,3.6157,3.6153,3.6301,3.6309,3.6316,0,0,0,0,0,0,0,0,0,0,0,0,0,3.5894,3.5768,3.6053,3.6056,3.6058,3.6194,3.6196,3.6198,3.6164,3.616,3.6156,3.6152,3.6298,3.6308,3.6317,3.646,0,0,3.6347,3.6351,0,0,0,0,0,0,0,0,3.5886,3.5904,3.6054,3.6056,3.6058,3.6157,3.6147,3.6286,3.6165,3.6124,3.6155,3.615,3.6258,3.6271,3.6306,3.6467,3.6473,3.6348,3.6354,3.6358,3.6361,0,0,0,0,0,0,0,3.5877,3.5898,3.6109,3.6056,3.6059,3.6053,3.6067,3.6173,3.6212,3.6127,3.6125,3.6142,3.6258,3.6297,3.631,3.6476,3.6348,3.6356,3.6363,3.6366,3.6766,3.677,0,0,0,0,0,0,3.5865,3.5891,3.6105,3.6113,3.596,3.6061,3.6077,3.6129,3.6211,3.6219,3.6145,3.614,3.6282,3.6298,3.6315,3.649,3.6358,3.6367,3.6373,3.6761,3.6767,3.6772,0,0,0,0,0,0,3.5859,3.5885,3.6099,3.6002,3.6028,3.6071,3.6129,3.6134,3.6173,3.6225,3.6232,3.6177,3.628,3.6301,3.6425,3.6495,3.6372,3.6381,3.6755,3.6763,3.6769,3.684,0,0,0,0,0,0,3.5851,3.5883,3.5935,3.6003,3.6034,3.6205,3.6134,3.614,3.6189,3.6183,3.6257,3.6265,3.6278,3.6411,3.6435,3.6506,3.6388,3.6749,3.6759,3.6767,3.6832,3.6849,3.6864,0,0,0,0,0,3.5841,3.595,3.5938,3.5964,3.61,3.6209,3.6227,3.6239,3.6195,3.625,3.6284,3.6262,3.6483,3.6424,3.645,3.6526,3.6745,3.6756,3.6766,3.6825,3.6846,3.6863,0,0,0,0,0,0,3.5889,3.5958,3.5946,3.608,3.6139,3.6203,3.6272,3.626,3.6333,3.6325,3.6338,3.6355,3.6482,3.6516,3.6449,3.6671,3.6608,3.6625,3.6643,3.6664,3.6679,3.6669,3.6396,0,0,0,0,0,3.5916,3.5996,3.6053,3.6166,3.6196,3.6229,3.6277,3.6281,3.6343,3.6368,3.6411,3.6474,3.6558,3.6612,3.6692,3.6837,3.6855,3.6902,3.6918,3.6931,3.6945,3.7029,3.7052,3.6807,3.6807,3.6807,0,0,3.5971,3.6019,3.6069,3.6177,3.6223,3.6309,3.625,3.6343,3.6408,3.6383,3.6503,3.6537,3.6608,3.6744,3.6807,3.6777,3.7017,3.6944,3.6954,3.6962,3.7042,3.7065,3.7086,3.6814,3.6813,3.6812,0,0,3.6115,3.6158,3.6259,3.6307,3.6378,3.64,3.6424,3.6491,3.6513,3.6633,3.6618,3.6696,3.6839,3.6892,3.6937,3.7107,3.7091,3.7132,3.7215,3.7296,3.7316,3.7333,3.7396,3.7418,3.7146,3.7147,3.7147,0,3.6175,3.6302,3.6312,3.6407,3.6457,3.6439,3.6543,3.6589,3.6683,3.6719,3.6684,3.6866,3.6912,3.7062,3.7104,3.714,3.7171,3.7124,3.7312,3.7329,3.7345,3.7406,3.7429,3.7151,3.7151,3.715,3.715,0,3.6374,3.6463,3.6536,3.6627,3.6685,3.6784,3.6812,3.687,3.6871,3.6897,3.7023,3.7078,3.7171,3.7207,3.7208,3.7359,3.7338,3.7308,3.7245,3.7373,3.7431,3.7454,3.7158,3.7156,3.7155,3.7154,0,0,3.6551,3.6649,3.6676,3.6719,3.6798,3.6868,3.6968,3.7058,3.7109,3.7175,3.7261,3.7385,3.7358,3.741,3.7417,3.7488,3.7623,3.7449,3.7451,3.7482,3.7797,3.7821,3.7847,3.7614,3.7618,3.7621,3.7792,0,3.6705,3.6879,3.6893,3.7051,3.7136,3.7122,3.721,3.7269,3.7298,3.7376,3.7408,3.7497,3.7453,3.7485,3.7554,3.7592,3.7687,3.758,3.7697,3.7701,3.768,3.7877,3.7901,3.806,3.7814,3.7818,3.7821,0,3.6906,3.6979,3.7146,3.7216,3.7253,3.7331,3.7417,3.749,3.7559,3.7576,3.7635,3.7634,3.7741,3.7674,3.7823,3.775,3.7799,3.7826,3.7832,3.7844,3.7769,3.7896,3.811,3.8134,3.7856,3.7853,3.7851,0,3.7022,3.7162,3.7281,3.7318,3.7402,3.7458,3.7497,3.7561,3.7616,3.7692,3.7728,3.7815,3.7864,3.7933,3.7957,3.7906,3.8106,3.8041,3.8125,3.8125,3.8168,3.8165,3.8395,3.8198,3.8197,3.8197,3.8196,0,3.7192,3.7295,3.7334,3.7407,3.7524,3.7541,3.7657,3.7692,3.7751,3.7833,3.7827,3.7904,3.793,3.8014,3.8034,3.8156,3.8177,3.8196,3.82,3.8197,3.8195,3.823,3.822,3.8203,3.8202,3.82,3.8199,0,3.734,3.737,3.7499,3.757,3.759,3.7674,3.7735,3.7808,3.7836,3.7941,3.7967,3.8012,3.8111,3.8141,3.8259,3.8273,3.8417,3.841,3.8393,3.8394,3.8478,3.847,3.8738,3.8776,3.8553,3.8555,3.8557,0,3.7447,3.7527,3.7607,3.7661,3.7702,3.7789,3.7845,3.7866,3.7926,3.8013,3.8076,3.8173,3.8251,3.8409,3.8455,3.8546,3.8543,3.8631,3.8557,3.8553,3.8548,3.8543,3.8553,3.8645,3.8648,3.8649,3.8651,0,3.7636,3.7648,3.7728,3.7815,3.7883,3.7952,3.802,3.8065,3.8097,3.8165,3.8265,3.8326,3.8448,3.8546,3.864,3.8682,3.8674,3.8674,3.8699,3.8697,3.8685,3.8695,3.8433,3.8668,3.8666,3.8665,3.8664,3.8663,3.7768,3.784,3.7908,3.7999,3.8052,3.8117,3.8189,3.8228,3.8311,3.8412,3.842,3.8529,3.8601,3.8726,3.8773,3.8861,3.8836,3.8871,3.888,3.8889,3.8897,3.867,3.8878,3.8877,3.8877,3.8877,3.8876,0,3.7958,3.8002,3.8086,3.8181,3.8254,3.8239,3.8314,3.8377,3.8473,3.8539,3.8618,3.8735,3.8831,3.8885,3.8982,3.9042,3.9041,3.9067,3.9063,3.9074,3.8912,3.8882,3.9066,3.9066,3.9066,3.9066,3.9066,3.9066,3.8065,3.8186,3.8207,3.8356,3.84,3.8506,3.8551,3.8612,3.8665,3.8797,3.8876,3.8911,3.8974,3.9076,3.9164,3.9178,3.9215,3.9244,3.9256,3.9104,3.9085,3.9066,3.9038,3.9251,3.9252,3.941,3.9411,3.9412]},{"header":{"parameterUnit":"m.s-1","parameterCategory":1,"la1":30.2991,"la2":30.254,"lo1":-89.0895,"lo2":-89.0444,"dy":0.0017,"dx":0.0017,"nx":28,"ny":28,"refTime":"2025-11-08T03:00:00:Z","depth":0,"parameterNumber":3,"parameterNumberName":"V-component_of_WINDS"},"data":[0,0,0,0,0,0,0,0,0,0,0,0,0,0,0,0,0,0,0,0,0,0,0,0,0,0,0,0,0,0,0,0,0,0,0,0,0,0,0,0,0,0,0,0,0,0,0,0,0,0,0,0,0,0,0,0,0,0,1.5497,1.5498,0,1.5568,1.5568,1.5569,1.5578,1.5577,1.5576,1.5576,1.5647,1.565,1.5652,0,0,0,0,0,0,0,0,0,0,0,0,0,1.537,1.5373,1.5497,1.5498,1.5499,1.5567,1.5568,1.5569,1.5578,1.5577,1.5576,1.5575,1.5647,1.565,1.5653,0,0,0,0,0,0,0,0,0,0,0,0,0,1.5432,1.5373,1.5497,1.5512,1.5514,1.5567,1.5568,1.557,1.5578,1.5577,1.5576,1.5575,1.5646,1.5649,1.5653,1.5697,0,0,1.5665,1.5666,0,0,0,0,0,0,0,0,1.5428,1.5436,1.5509,1.5511,1.5513,1.5563,1.555,1.5612,1.5578,1.5554,1.5576,1.5575,1.562,1.5626,1.5641,1.57,1.5703,1.5665,1.5667,1.5669,1.567,0,0,0,0,0,0,0,1.5424,1.5433,1.5525,1.551,1.5512,1.5515,1.5522,1.5562,1.5592,1.5556,1.5556,1.5565,1.5621,1.5638,1.5643,1.5705,1.5665,1.5668,1.5671,1.5672,1.5804,1.5805,0,0,0,0,0,0,1.5417,1.543,1.5523,1.5527,1.5467,1.5518,1.5526,1.5548,1.5591,1.5597,1.5565,1.5565,1.5632,1.5639,1.5646,1.5701,1.5669,1.5673,1.5675,1.5803,1.5804,1.5806,0,0,0,0,0,0,1.5414,1.5425,1.552,1.5479,1.5491,1.5521,1.5545,1.555,1.5566,1.5599,1.5604,1.5577,1.5631,1.564,1.5684,1.5703,1.5674,1.5678,1.5801,1.5803,1.5805,1.5811,0,0,0,0,0,0,1.5411,1.5424,1.5441,1.5479,1.5493,1.5558,1.5547,1.5552,1.5573,1.5573,1.5611,1.5616,1.5631,1.5679,1.5688,1.5708,1.5681,1.58,1.5802,1.5804,1.5809,1.5813,1.5816,0,0,0,0,0,1.5406,1.544,1.5442,1.5453,1.5515,1.5559,1.5567,1.5583,1.5574,1.5592,1.5613,1.5615,1.57,1.5683,1.5694,1.5715,1.5799,1.5802,1.5804,1.5808,1.5812,1.5816,0,0,0,0,0,0,1.5403,1.5445,1.5448,1.5495,1.5523,1.556,1.5583,1.5587,1.5618,1.5617,1.5636,1.5644,1.5688,1.5706,1.5687,1.576,1.5748,1.5753,1.5747,1.5752,1.5755,1.575,1.5684,0,0,0,0,0,1.5408,1.544,1.5475,1.5513,1.5527,1.5553,1.5572,1.5582,1.5612,1.5624,1.5648,1.5677,1.571,1.5732,1.5764,1.5812,1.582,1.5832,1.5835,1.5837,1.5842,1.5869,1.5874,1.5815,1.5815,1.5815,0,0,1.5419,1.5446,1.5465,1.5513,1.5537,1.557,1.5563,1.5597,1.5622,1.563,1.5673,1.5692,1.5725,1.5771,1.5793,1.5788,1.586,1.5841,1.5843,1.5846,1.5872,1.5878,1.5883,1.5816,1.5816,1.5816,0,0,1.5455,1.5478,1.5513,1.5536,1.5571,1.5588,1.5596,1.5633,1.5645,1.5689,1.5696,1.5725,1.5782,1.5806,1.5825,1.5871,1.5874,1.588,1.5898,1.5924,1.5929,1.5933,1.595,1.5956,1.5884,1.5884,1.5885,0,1.5464,1.5514,1.553,1.5565,1.5587,1.5595,1.5631,1.5652,1.5696,1.5711,1.5704,1.5776,1.5799,1.5851,1.5862,1.5878,1.5888,1.5877,1.5927,1.5931,1.5936,1.5952,1.5958,1.5885,1.5885,1.5885,1.5885,0,1.5523,1.5557,1.5581,1.5624,1.5648,1.5683,1.5705,1.5727,1.5735,1.5752,1.5797,1.5825,1.5864,1.5877,1.5885,1.593,1.5926,1.5923,1.5911,1.5942,1.5957,1.5964,1.5886,1.5886,1.5886,1.5885,0,0,1.556,1.5611,1.562,1.5639,1.5679,1.5706,1.5741,1.5779,1.5798,1.5828,1.5858,1.5906,1.5904,1.5926,1.5937,1.5959,1.5995,1.5954,1.5955,1.5961,1.6047,1.605,1.6057,1.5997,1.5998,1.5999,1.6045,0,1.5601,1.5665,1.5681,1.5735,1.5768,1.5776,1.5807,1.5835,1.5852,1.5882,1.59,1.5934,1.5928,1.5942,1.5964,1.5985,1.6012,1.5982,1.6026,1.6027,1.6018,1.6065,1.6068,1.611,1.6051,1.6052,1.6053,0,1.5658,1.5689,1.5747,1.5783,1.5797,1.5824,1.5861,1.5889,1.592,1.5931,1.5956,1.5965,1.6002,1.5988,1.604,1.602,1.6038,1.6051,1.6053,1.6058,1.6042,1.6072,1.6123,1.613,1.6062,1.6062,1.6061,0,1.568,1.5736,1.5779,1.5795,1.5837,1.5857,1.5875,1.5906,1.5928,1.5959,1.5974,1.6009,1.6028,1.6055,1.6074,1.6061,1.6124,1.6112,1.6135,1.6134,1.6148,1.6147,1.6204,1.6159,1.6159,1.6159,1.6159,0,1.5725,1.576,1.5789,1.5815,1.5855,1.5873,1.5912,1.593,1.5958,1.5987,1.5996,1.6024,1.6046,1.6077,1.6091,1.6133,1.6141,1.6151,1.6155,1.6151,1.615,1.6164,1.6162,1.6161,1.616,1.616,1.616,0,1.5756,1.5777,1.5824,1.586,1.587,1.5898,1.5929,1.5955,1.5972,1.601,1.602,1.6047,1.6084,1.6104,1.615,1.616,1.6206,1.6208,1.6196,1.6197,1.622,1.6218,1.6288,1.6298,1.6246,1.6247,1.6247,0,1.5784,1.5811,1.5851,1.5871,1.589,1.5923,1.5946,1.5965,1.5988,1.6026,1.6047,1.6084,1.6115,1.6174,1.6198,1.6233,1.6236,1.6258,1.6242,1.6237,1.6237,1.6236,1.6239,1.6261,1.6262,1.6262,1.6263,0,1.5831,1.584,1.5872,1.5908,1.5934,1.5963,1.5992,1.6009,1.6032,1.6058,1.6095,1.6119,1.6167,1.6204,1.6242,1.6261,1.6266,1.6268,1.6275,1.6272,1.6264,1.6269,1.6205,1.6266,1.6266,1.6265,1.6265,1.6265,1.5862,1.5886,1.5918,1.5954,1.5978,1.6004,1.603,1.6051,1.6083,1.6123,1.6132,1.6172,1.6204,1.6255,1.6275,1.6306,1.6302,1.6313,1.6316,1.6318,1.6319,1.6258,1.6313,1.6313,1.6313,1.6313,1.6313,0,1.591,1.593,1.5963,1.6003,1.6031,1.6034,1.6066,1.6089,1.6124,1.6153,1.6183,1.6227,1.6263,1.629,1.6327,1.6347,1.6351,1.6357,1.6356,1.636,1.6321,1.6311,1.6353,1.6353,1.6353,1.6353,1.6353,1.6353,1.5938,1.598,1.5993,1.6048,1.6068,1.6108,1.6126,1.6151,1.6174,1.6223,1.6253,1.627,1.6298,1.6338,1.6371,1.6378,1.6391,1.6397,1.6404,1.6367,1.6363,1.6359,1.635,1.64,1.64,1.6442,1.6442,1.6442]}]]